Location: Unspecified
(42.3650°N, 71.1030°W)
Time: 22:33:06
(UTC+00:00)

Cosmos 1076 Rocket - Pass Details

Date: 02 March 2024
Orbit: 586 x 608 km, 82.5° (Epoch: 15 April)

Event Time Altitude Azimuth Distance (km) Brightness Sun altitude
Rises 23:31:07 0° 194° (SSW) 2,802 7.1 -10.9°
Reaches altitude 10° 23:33:18 10° 197° (SSW) 1,908 6.3 -11.3°
Maximum altitude 23:37:29 65° 279° (W) 651 3.9 -12.1°
Drops below altitude 10° 23:41:44 10° 2° (N) 1,935 6.1 -12.9°
Sets 23:43:59 0° 6° (N) 2,845 6.9 -13.3°
